Погода в Анисимовке

Россия / Приморский край     43°10′12″N   132°47′22″E
темп.,
°C
ветер,
м/с
пор.,
м/с
влажн.,
%
обл.,
%
осадки,
мм/ч
давл.,
гПа
погр.,
м
24 мая, вт
вт2401:00+9вюв2388100 0.0 101357
04:00+9юв2293100 0.4 101361
07:00+11вюв2396100 1.9 1013121
10:00+16юз138290 2.7 1012494
13:00+23ююз364986 0.1 10101112
16:00+24юз364796 0.1 10081092
19:00+18юз1276100 0.3 1009213
22:00+13вюв229653 0.3 101026
25 мая, ср
ср2501:00+11вюв2298100 0.0 101037
04:00+11в229863 0.0 100948
07:00+13всв119321 0.0 100968
10:00+21зюз115670 0.0 1007590
13:00+26зюз24409 0.0 10051658
16:00+25зюз334173 0.0 10041434
19:00+20зюз236168 0.0 1005241
22:00+13в118968 0.0 100711
26 мая, чт
чт2601:00+12вюв2286100 0.0 100643
04:00+11вюв2289100 0.0 100739
07:00+13вюв2482100 0.0 1006128
10:00+19вюв3748100 0.0 1004914
13:00+19ююв3743100 0.1 10041062
16:00+14ююв2692100 1.9 1004585
19:00+12вюв379745 3.8 1003390
22:00+12вюв2398100 4.1 1004121
27 мая, пт
пт2701:00+12вюв1299100 0.2 1003134
04:00+11юв119898 0.4 100360
07:00+11вюв119770 0.2 100283
10:00+17в226061 0.2 1001961
13:00+19ююз1249100 0.3 9991649
16:00+17з3275100 1.9 998535
19:00+14зюз2394100 2.1 997192
22:00+10зюз2299100 7.4 999132
28 мая, сб
сб2801:00+10зсз11100100 1.1 999122
04:00+10зсз12100100 1.8 999138
07:00+10зсз1298100 0.8 1000232
10:00+12з2294100 0.8 1001394
13:00+19зсз34530 0.0 10001069
16:00+21з464714 0.0 10001599
19:00+17з256458 0.0 1001397
22:00+11юз118455 0.0 100414